User: anonymous   Login
Location: Unspecified
(40.9447°N, 78.9903°W)
Time: 10:00:06
(UTC-04:00)
Language:

Resurs 1-4 Rocket - Orbit

View from above orbital plane
View from above orbital plane
View from above satellite
View from above satellite

Ground track
Ground track

The orbit data is extracted from the following two-line orbital elements,

1 25400U 98043G   21270.84295354  .00000005  00000-0  20675-4 0  9996
2 25400  98.6440 205.2016 0010881  56.8184 303.4038 14.25483225207602
Epoch (UTC): 27 September 2021 20:13:51
Eccentricity: 0.0010881
inclination: 98.6440°
perigee height: 799 km
apogee height: 814 km
right ascension of ascending node: 205.2016°
argument of perigee: 56.8184°
revolutions per day: 14.25483225
mean anomaly at epoch: 303.4038°
orbit number at epoch: 20760

The dashed part of the orbit path shows where the satellite is in the earth's shadow,  

DLR